Regional Weather Roundup
Issued by NWS

Home | Current Version | Previous Version | Graphics & Text | Print | Product List | Glossary On
Versions: 1 2 3 4 5 6 7 8 9 10 11 12 13 14 15 16 17 18 19 20 21 22 23 24 25 26 27 28 29 30 31 32 33 34 35 36 37 38 39 40 41 42 43 44 45 46 47 48 49 50
000
ASUS43 KBIS 201702
RWRND

NORTH DAKOTA REGIONAL WEATHER ROUNDUP
NATIONAL WEATHER SERVICE BISMARCK ND
1200 PM CDT THU JUL 20 2017

NOTE: "FAIR" INDICATES FEW OR NO CLOUDS BELOW 12,000 FEET WITH NO
SIGNIFICANT WEATHER AND/OR OBSTRUCTIONS TO VISIBILITY.


NDZ001>003-009>011-017-201800-
NORTHWEST NORTH DAKOTA

CITY           SKY/WX    TMP DP  RH WIND       PRES   REMARKS
WILLISTON      SUNNY     87  58  37 E5        29.93F
MINOT          SUNNY     86  64  47 S12G20    29.96F
MINOT AFB      SUNNY     81  65  59 SE13      29.95F
$$

NDZ018>021-031>035-040>046-201800-
SOUTHWEST NORTH DAKOTA

CITY           SKY/WX    TMP DP  RH WIND       PRES   REMARKS
BISMARCK       SUNNY     88  62  41 S14       30.01F
DICKINSON      SUNNY     89  62  40 S13       29.97F
GARRISON         N/A     83  61  47 S15       29.97F
HETTINGER ARPT PTSUNNY   84  63  49 SE10G24   30.02F
$$

NDZ004>008-012>016-024-026-027-054-201800-
NORTHEAST NORTH DAKOTA

CITY           SKY/WX    TMP DP  RH WIND       PRES   REMARKS
GRAND FORKS    PTSUNNY   77  62  59 VRB3      30.01F
GRND FRKS AFB  SUNNY     74  61  62 SE5       30.03F
DEVILS LAKE    SUNNY     76  59  55 SE7       30.04S
$$

NDZ022-023-025-028>030-036>039-047>053-201800-
SOUTHEAST NORTH DAKOTA

CITY           SKY/WX    TMP DP  RH WIND       PRES   REMARKS
FARGO          SUNNY     81  58  45 CALM      30.01F
JAMESTOWN      SUNNY     80  62  54 SE12      30.03F
$$




USA.gov is the U.S. government's official web portal to all federal, state and local government web resources and services.